Location: *
(43.4667°N, 11.6833°E)
Time: 07:34:33
(UTC+00:00)

COSMOS 2428 - Pass Details

Date: 19 July 2019
Orbit: 846 x 855 km, 70.9° (Epoch: 24 August)

Event Time Altitude Azimuth Distance (km) Brightness Sun altitude
Exits shadow 20:35:57 24° 149° (SSE) 1,712 3.7 -15.6°
Maximum altitude 20:38:28 34° 105° (ESE) 1,374 3.4 -15.9°
Drops below altitude 10° 20:43:33 10° 42° (NE) 2,493 5.3 -16.5°
Sets 20:46:12 0° 33° (NNE) 3,433 6.1 -16.7°
